Lid_Strength_Index
1 1 1 1 1 1 1 1 1 1 1 2 2 2 2 2 1 0 0 0 1 1 0 1 1 1 1 1 1 1 1 2 3 2 1 -0 0 0 -0 -1 -1 -0 -0
1 1 1 1 1 1 2 2 2 2 2 2 2 3 4 4 4 4 4 4 4 4 3 2 1 1 1 1 1 2 1 1 2 3 1 1 1 0 0 0 0 -0 -0
2 2 2 2 2 2 2 2 2 3 3 4 5 6 6 6 6 6 6 6 6 5 5 4 2 1 2 1 1 2 2 1 1 2 3 1 1 0 1 0 0 0 -0
2 2 2 2 2 3 2 3 4 5 5 5 5 5 5 5 5 5 6 5 6 5 5 3 3 3 2 1 1 2 1 2 2 2 2 2 2 1 1 2 2 1 1
3 3 3 3 3 3 4 5 5 5 5 5 5 5 5 6 6 6 5 6 6 6 5 5 4 3 3 3 4 1 1 2 2 3 3 3 2 2 2 2 2 2 1
3 3 3 4 4 4 4 5 5 6 5 5 5 5 6 6 7 7 6 5 6 6 6 5 4 4 4 4 4 4 3 2 3 3 3 3 3 2 2 2 2 3 4
4 4 4 4 5 5 5 5 5 5 4 5 5 5 5 5 7 7 7 6 6 6 5 5 5 5 4 4 3 3 3 4 4 2 3 3 3 1 1 2 2 3 3
4 4 5 5 5 5 5 5 4 5 5 5 6 6 5 4 6 7 7 5 5 5 5 5 5 5 4 4 3 2 1 1 1 1 1 1 1 0 0 1 1 2 1
6 6 6 6 6 5 6 5 5 5 6 6 6 5 4 4 6 7 7 5 5 5 5 4 4 4 5 7 4 3 3 2 1 4 4 4 5 6 4 1 3 3 4
8 8 7 6 6 7 6 5 6 5 6 5 5 4 4 3 5 7 6 4 5 4 4 4 5 5 6 7 5 4 5 4 2 1 1 2 4 1 6 0 1 4 4
10 10 8 7 7 6 5 6 5 6 5 5 5 4 3 4 2 6 7 3 3 4 4 4 4 6 8 8 8 4 4 2 2 1 1 1 1 1 1 0 1 2 3
11 10 9 8 7 6 6 6 6 5 5 5 5 4 4 3 4 5 7 7 4 3 4 4 3 6 8 8 8 7 7 5 2 2 2 2 2 2 1 1 0 0 -0
12 11 10 8 7 6 7 7 7 6 5 6 5 5 6 5 4 6 8 8 8 7 5 6 7 7 8 8 9 8 8 3 2 2 3 3 2 1 1 1 0 0 0
13 12 11 9 9 7 7 7 7 7 7 6 5 6 7 8 7 7 7 6 6 6 6 5 6 6 7 5 5 7 3 1 2 2 3 2 1 1 2 1 2 2 3
14 13 13 11 10 9 7 7 7 5 7 8 6 8 10 11 10 11 12 10 7 8 10 8 6 5 5 4 2 2 2 2 2 2 2 3 3 2 2 2 2 2 3
14 15 14 12 11 10 10 8 9 9 10 11 10 11 11 12 12 11 11 11 12 12 7 5 5 6 5 4 3 3 3 3 2 2 2 3 3 3 3 2 2 3 3
13 14 15 13 12 12 13 11 11 7 9 10 11 11 12 13 12 11 11 10 9 9 5 5 5 5 5 3 3 3 3 3 2 2 3 3 3 4 4 4 3 3 3
11 13 13 14 14 14 13 13 14 11 10 8 9 11 12 12 12 12 11 7 4 3 4 4 4 4 4 4 3 3 3 2 3 3 3 3 3 5 5 4 4 3 3
9 10 10 12 14 14 14 13 14 14 12 11 9 10 12 12 12 12 11 9 7 5 3 3 4 2 2 4 4 3 3 5 4 3 3 3 3 3 3 2 3 6 4
8 11 10 9 9 10 12 14 14 14 15 14 13 12 13 12 13 12 11 10 8 6 4 2 2 2 2 2 2 2 2 3 3 3 2 2 2 2 2 2 2 3 3
9 9 11 9 9 9 10 10 12 13 14 15 14 13 14 13 14 14 13 12 10 9 6 5 2 2 2 2 2 1 2 2 2 2 2 2 2 2 2 2 2 2 2
9 10 10 10 10 10 10 9 9 11 11 13 15 14 14 11 13 14 14 14 12 9 8 5 5 4 4 4 3 2 1 2 2 1 1 1 2 2 2 2 2 2 3
10 10 10 10 10 11 10 10 10 10 10 11 12 15 14 13 13 14 15 15 13 12 10 8 6 6 5 3 5 4 7 7 2 1 2 2 2 1 2 2 2 2 3
10 10 11 11 11 11 11 11 10 11 10 10 11 11 13 14 14 13 14 14 15 13 11 11 9 8 6 6 6 7 9 11 5 5 1 2 2 2 2 2 1 2 2
10 11 11 12 12 12 12 12 11 11 11 11 11 11 12 12 14 14 13 13 14 14 14 13 11 11 9 7 8 9 13 14 11 13 5 0 0 0 1 1 2 2 2
10 10 11 12 13 13 13 13 13 12 12 11 11 11 11 12 12 13 14 13 13 14 14 13 13 13 11 9 10 13 14 14 13 14 10 0 0 0 0 1 1 2 2